• In Hungary
  • List of Countries
  • For 7 days
  • Water Temperature
  • Satellite Maps
  • Weather Map
  • News
  • Weather Widgets
  • user-avatar
    Login

    Hourly Weather Santa Fe

    Today, 20 June, Wednesday

    Time Temperature Precipitation Wind Pressure Humidity
    00:00 +17°C° 0 mm 3 mps 588 mmHg 24%
    01:00 +16°C° 0 mm 3 mps 588 mmHg 25%
    02:00 +16°C° 0 mm 3 mps 588 mmHg 26%
    03:00 +14°C° 0 mm 3 mps 588 mmHg 27%
    04:00 +15°C° 0 mm 2 mps 588 mmHg 27%
    05:00 +14°C° 0 mm 2 mps 588 mmHg 28%
    06:00 +17°C° 0 mm 2 mps 590 mmHg 25%
    07:00 +20°C° 0 mm 1 mps 591 mmHg 22%
    08:00 +23°C° 0 mm 1 mps 592 mmHg 19%
    09:00 +25°C° 0 mm 1 mps 593 mmHg 18%
    10:00 +26°C° 0 mm 2 mps 593 mmHg 16%
    11:00 +28°C° 0 mm 2 mps 594 mmHg 14%
    12:00 +28°C° 0 mm 3 mps 593 mmHg 14%
    13:00 +29°C° 0 mm 3 mps 593 mmHg 13%
    14:00 +30°C° 0 mm 4 mps 593 mmHg 12%
    15:00 +30°C° 0 mm 4 mps 593 mmHg 13%
    16:00 +30°C° 0 mm 5 mps 593 mmHg 13%
    17:00 +30°C° 0 mm 6 mps 592 mmHg 14%
    18:00 +27°C° 0 mm 5 mps 592 mmHg 18%
    19:00 +25°C° 0 mm 4 mps 591 mmHg 22%
    20:00 +21°C° 0 mm 3 mps 590 mmHg 26%
    21:00 +21°C° 0 mm 3 mps 591 mmHg 28%
    22:00 +20°C° 0 mm 2 mps 591 mmHg 30%
    23:00 +19°C° 0 mm 2 mps 591 mmHg 32%

    Tomorrow, 21 June, Thursday

    Time Temperature Precipitation Wind Pressure Humidity
    00:00 +18°C° 0 mm 2 mps 591 mmHg 37%
    01:00 +18°C° 0 mm 3 mps 591 mmHg 43%
    02:00 +17°C° 0 mm 3 mps 591 mmHg 48%
    03:00 +16°C° 0 mm 3 mps 591 mmHg 56%
    04:00 +16°C° 0 mm 3 mps 591 mmHg 63%
    05:00 +16°C° 0 mm 3 mps 591 mmHg 71%
    06:00 +17°C° 0 mm 3 mps 592 mmHg 64%
    07:00 +19°C° 0 mm 3 mps 593 mmHg 58%
    08:00 +21°C° 0 mm 2 mps 593 mmHg 51%
    09:00 +24°C° 0 mm 2 mps 594 mmHg 44%
    10:00 +26°C° 0 mm 2 mps 594 mmHg 37%
    11:00 +27°C° 0 mm 2 mps 595 mmHg 30%
    12:00 +29°C° 0 mm 3 mps 595 mmHg 27%
    13:00 +30°C° 0 mm 3 mps 595 mmHg 23%
    14:00 +31°C° 0 mm 3 mps 595 mmHg 20%
    15:00 +32°C° 0 mm 4 mps 594 mmHg 19%
    16:00 +32°C° 0 mm 4 mps 594 mmHg 18%
    17:00 +32°C° 0 mm 5 mps 593 mmHg 17%
    18:00 +28°C° 0 mm 4 mps 592 mmHg 18%
    19:00 +26°C° 0 mm 3 mps 592 mmHg 19%
    20:00 +24°C° 0 mm 2 mps 591 mmHg 21%
    21:00 +23°C° 0 mm 2 mps 591 mmHg 21%
    22:00 +21°C° 0 mm 2 mps 590 mmHg 21%
    23:00 +20°C° 0 mm 2 mps 590 mmHg 21%

    Day after tomorrow, 22 June, Friday

    Time Temperature Precipitation Wind Pressure Humidity
    00:00 +19°C° 0 mm 2 mps 590 mmHg 21%
    01:00 +18°C° 0 mm 2 mps 589 mmHg 21%
    02:00 +18°C° 0 mm 2 mps 589 mmHg 21%
    03:00 +17°C° 0 mm 2 mps 589 mmHg 20%
    04:00 +17°C° 0 mm 2 mps 589 mmHg 20%
    05:00 +17°C° 0 mm 2 mps 589 mmHg 20%
    06:00 +20°C° 0 mm 2 mps 590 mmHg 19%
    07:00 +24°C° 0 mm 2 mps 591 mmHg 18%
    08:00 +27°C° 0 mm 2 mps 593 mmHg 17%
    09:00 +28°C° 0 mm 3 mps 593 mmHg 16%
    10:00 +30°C° 0 mm 5 mps 593 mmHg 15%
    11:00 +32°C° 0 mm 6 mps 593 mmHg 13%
    12:00 +33°C° 0 mm 7 mps 593 mmHg 13%
    13:00 +34°C° 0 mm 7 mps 593 mmHg 12%
    14:00 +34°C° 0 mm 8 mps 592 mmHg 11%
    15:00 +34°C° 0 mm 8 mps 592 mmHg 11%
    16:00 +34°C° 0 mm 8 mps 591 mmHg 11%
    17:00 +33°C° 0 mm 8 mps 591 mmHg 11%
    18:00 +30°C° 0 mm 6 mps 590 mmHg 13%
    19:00 +27°C° 0 mm 5 mps 589 mmHg 14%
    20:00 +25°C° 0 mm 4 mps 588 mmHg 16%
    21:00 +24°C° 0 mm 3 mps 588 mmHg 17%
    22:00 +22°C° 0 mm 3 mps 588 mmHg 18%
    23:00 +21°C° 0 mm 3 mps 587 mmHg 19%

    23 June, Saturday

    Time Temperature Precipitation Wind Pressure Humidity
    00:00 +20°C° 0 mm 3 mps 587 mmHg 20%
    01:00 +19°C° 0 mm 2 mps 586 mmHg 21%
    02:00 +18°C° 0 mm 2 mps 586 mmHg 22%
    03:00 +18°C° 0 mm 2 mps 586 mmHg 23%
    04:00 +17°C° 0 mm 2 mps 586 mmHg 23%
    05:00 +17°C° 0 mm 2 mps 586 mmHg 24%
    06:00 +20°C° 0 mm 2 mps 588 mmHg 21%
    07:00 +23°C° 0 mm 2 mps 589 mmHg 18%
    08:00 +26°C° 0 mm 2 mps 590 mmHg 14%
    09:00 +28°C° 0 mm 3 mps 591 mmHg 13%
    10:00 +29°C° 0 mm 4 mps 591 mmHg 12%
    11:00 +32°C° 0 mm 5 mps 591 mmHg 10%
    12:00 +32°C° 0 mm 5 mps 591 mmHg 10%
    13:00 +33°C° 0 mm 6 mps 591 mmHg 9%
    14:00 +34°C° 0 mm 6 mps 591 mmHg 9%
    15:00 +33°C° 0 mm 6 mps 590 mmHg 9%
    16:00 +33°C° 0 mm 6 mps 590 mmHg 9%
    17:00 +32°C° 0 mm 7 mps 589 mmHg 9%
    18:00 +29°C° 0 mm 5 mps 589 mmHg 11%
    19:00 +26°C° 0 mm 4 mps 588 mmHg 13%
    20:00 +22°C° 0 mm 3 mps 587 mmHg 15%
    21:00 +21°C° 0 mm 2 mps 587 mmHg 16%
    22:00 +21°C° 0 mm 2 mps 587 mmHg 16%
    23:00 +20°C° 0 mm 2 mps 587 mmHg 17%

    24 June, Sunday

    Time Temperature Precipitation Wind Pressure Humidity
    00:00 +19°C° 0 mm 2 mps 587 mmHg 19%
    01:00 +19°C° 0 mm 2 mps 587 mmHg 20%
    02:00 +18°C° 0 mm 3 mps 587 mmHg 22%
    03:00 +18°C° 0 mm 3 mps 587 mmHg 26%
    04:00 +17°C° 0 mm 3 mps 587 mmHg 30%
    05:00 +17°C° 0 mm 3 mps 588 mmHg 33%
    06:00 +19°C° 0 mm 3 mps 589 mmHg 32%
    07:00 +21°C° 0 mm 3 mps 590 mmHg 30%
    08:00 +24°C° 0 mm 3 mps 591 mmHg 28%
    09:00 +26°C° 0 mm 4 mps 591 mmHg 25%
    10:00 +27°C° 0 mm 4 mps 591 mmHg 21%
    11:00 +28°C° 0 mm 5 mps 592 mmHg 17%
    12:00 +29°C° 0 mm 6 mps 592 mmHg 16%
    13:00 +30°C° 0 mm 7 mps 592 mmHg 14%
    14:00 +30°C° 0 mm 7 mps 591 mmHg 12%
    15:00 +30°C° 0 mm 7 mps 591 mmHg 12%
    16:00 +31°C° 0 mm 8 mps 591 mmHg 11%
    17:00 +29°C° 0 mm 8 mps 591 mmHg 11%
    18:00 +27°C° 0 mm 6 mps 590 mmHg 13%
    19:00 +25°C° 0 mm 5 mps 589 mmHg 16%
    20:00 +22°C° 0 mm 3 mps 589 mmHg 19%
    21:00 +21°C° 0 mm 3 mps 589 mmHg 20%
    22:00 +20°C° 0 mm 3 mps 589 mmHg 22%
    23:00 +20°C° 0 mm 3 mps 589 mmHg 23%

    25 June, Monday

    Time Temperature Precipitation Wind Pressure Humidity
    00:00 +19°C° 0 mm 3 mps 589 mmHg 25%
    01:00 +18°C° 0 mm 3 mps 588 mmHg 27%
    02:00 +18°C° 0 mm 3 mps 588 mmHg 29%
    03:00 +17°C° 0 mm 2 mps 588 mmHg 31%
    04:00 +16°C° 0 mm 2 mps 588 mmHg 33%
    05:00 +15°C° 0 mm 2 mps 588 mmHg 36%
    06:00 +18°C° 0 mm 3 mps 589 mmHg 31%
    07:00 +21°C° 0 mm 4 mps 591 mmHg 27%
    08:00 +23°C° 0 mm 5 mps 592 mmHg 22%
    09:00 +24°C° 0 mm 6 mps 592 mmHg 20%
    10:00 +27°C° 0 mm 6 mps 592 mmHg 19%
    11:00 +28°C° 0 mm 7 mps 593 mmHg 17%
    12:00 +29°C° 0 mm 7 mps 593 mmHg 16%
    13:00 +29°C° 0 mm 8 mps 593 mmHg 16%
    14:00 +31°C° 0 mm 8 mps 593 mmHg 15%
    15:00 +30°C° 0 mm 7 mps 592 mmHg 15%
    16:00 +29°C° 0 mm 7 mps 592 mmHg 16%
    17:00 +29°C° 0 mm 6 mps 592 mmHg 16%
    18:00 +27°C° 0 mm 5 mps 591 mmHg 19%
    19:00 +23°C° 0 mm 4 mps 591 mmHg 23%
    20:00 +21°C° 0 mm 3 mps 590 mmHg 26%
    21:00 +20°C° 0 mm 3 mps 590 mmHg 27%
    22:00 +20°C° 0 mm 3 mps 590 mmHg 29%
    23:00 +19°C° 0 mm 3 mps 590 mmHg 30%
    Show more